| time (UTC) | temp F | wind direction | speed knots | gust knots | rain 1hr in | rain 24hr in | rain mn in | humidity % | barometer mb |
| 20260503031610 | 55 | 177 | 1.7 | 4.3 | 0.00 | 0.00 | 0.00 | 48 | 1010.7 |
| 20260503030035 | 56 | 173 | 2.6 | 4.3 | 0.00 | 0.00 | 0.00 | 47 | 1010.9 |
| 20260503024529 | 55 | 171 | 4.3 | 6.1 | 0.00 | 0.00 | 0.00 | 48 | 1011.0 |
| 20260503023000 | 55 | 193 | 2.6 | 4.3 | 0.00 | 0.00 | 0.00 | 47 | 1011.1 |
| 20260503021603 | 55 | 186 | 2.6 | 5.2 | 0.00 | 0.00 | 0.00 | 46 | 1011.1 |
| 20260503020041 | 56 | 163 | 2.6 | 4.3 | 0.00 | 0.00 | 0.00 | 47 | 1011.2 |
| 20260503014553 | 56 | 178 | 1.7 | 4.3 | 0.00 | 0.00 | 0.00 | 44 | 1011.2 |
| 20260503013024 | 57 | 184 | 2.6 | 4.3 | 0.00 | 0.00 | 0.00 | 44 | 1011.2 |
| 20260503011514 | 57 | 179 | 1.7 | 5.2 | 0.00 | 0.00 | 0.00 | 45 | 1011.3 |
| 20260503010052 | 57 | 173 | 2.6 | 4.3 | 0.00 | 0.00 | 0.00 | 44 | 1011.5 |
| 20260503004551 | 58 | 165 | 1.7 | 4.3 | 0.00 | 0.00 | 0.00 | 43 | 1011.5 |
| 20260503003023 | 58 | 203 | 2.6 | 5.2 | 0.00 | 0.00 | 0.00 | 42 | 1011.5 |
| 20260503001513 | 58 | 210 | 3.5 | 5.2 | 0.00 | 0.00 | 0.00 | 41 | 1011.8 |
| 20260503000058 | 59 | 196 | 2.6 | 7.8 | 0.00 | 0.00 | 0.00 | 41 | 1012.0 |
| 20260502234545 | 59 | 244 | 2.6 | 7.0 | 0.00 | 0.00 | 0.00 | 42 | 1012.2 |
| 20260502233021 | 59 | 219 | 4.3 | 11.3 | 0.00 | 0.00 | 0.00 | 41 | 1012.3 |
| 20260502231521 | 59 | 230 | 4.3 | 13.0 | 0.00 | 0.00 | 0.00 | 42 | 1012.3 |
| 20260502230051 | 59 | 219 | 8.7 | 13.0 | 0.00 | 0.00 | 0.00 | 40 | 1012.5 |
| 20260502224559 | 59 | 219 | 5.2 | 11.3 | 0.00 | 0.00 | 0.00 | 41 | 1012.7 |
| 20260502223029 | 60 | 220 | 7.8 | 13.0 | 0.00 | 0.00 | 0.00 | 38 | 1012.7 |
| 20260502221533 | 60 | 201 | 6.1 | 9.6 | 0.00 | 0.00 | 0.00 | 39 | 1012.9 |
| 20260502220007 | 61 | 224 | 7.8 | 13.0 | 0.00 | 0.00 | 0.00 | 37 | 1012.9 |
| 20260502214505 | 61 | 250 | 6.1 | 13.9 | 0.00 | 0.00 | 0.00 | 36 | 1013.0 |
| 20260502213029 | 61 | 279 | 7.0 | 14.8 | 0.00 | 0.00 | 0.00 | 39 | 1013.3 |
| 20260502211537 | 61 | 262 | 7.8 | 13.0 | 0.00 | 0.00 | 0.00 | 36 | 1013.5 |
| 20260502210000 | 59 | 234 | 5.2 | 13.9 | 0.00 | 0.00 | 0.00 | 37 | 1013.5 |
| 20260502204555 | 59 | 209 | 7.0 | 13.0 | 0.00 | 0.00 | 0.00 | 36 | 1013.8 |
| 20260502203028 | 60 | 228 | 7.8 | 13.0 | 0.00 | 0.00 | 0.00 | 34 | 1014.0 |
| 20260502201520 | 60 | 239 | 8.7 | 13.9 | 0.00 | 0.00 | 0.00 | 35 | 1014.4 |
| 20260502200051 | 60 | 232 | 9.6 | 18.2 | 0.00 | 0.00 | 0.00 | 38 | 1014.6 |
| 20260502194553 | 59 | 250 | 6.1 | 14.8 | 0.00 | 0.00 | 0.00 | 36 | 1014.8 |
| 20260502193013 | 59 | 236 | 11.3 | 16.5 | 0.00 | 0.00 | 0.00 | 36 | 1015.0 |
| 20260502191511 | 58 | 286 | 6.1 | 14.8 | 0.00 | 0.00 | 0.00 | 36 | 1015.2 |
| 20260502190043 | 58 | 227 | 7.8 | 13.0 | 0.00 | 0.00 | 0.00 | 40 | 1015.5 |
| 20260502184543 | 57 | 207 | 6.1 | 14.8 | 0.00 | 0.00 | 0.00 | 36 | 1015.6 |
| 20260502183007 | 58 | 221 | 4.3 | 9.6 | 0.00 | 0.00 | 0.00 | 40 | 1015.9 |
| 20260502181552 | 58 | 269 | 7.8 | 14.8 | 0.00 | 0.00 | 0.00 | 39 | 1016.1 |
| 20260502163034 | 55 | 250 | 10.4 | 18.2 | 0.00 | 0.00 | 0.00 | 37 | 1017.4 |
| 20260502161517 | 54 | 312 | 9.6 | 17.4 | 0.00 | 0.00 | 0.00 | 36 | 1017.6 |
| 20260502151544 | 51 | 263 | 6.1 | 8.7 | 0.00 | 0.00 | 0.00 | 49 | 1018.2 |
| 20260502123126 | 37 | 169 | 0.9 | 2.6 | 0.00 | 0.00 | 0.00 | 66 | 1019.1 |
| 20260502121602 | 36 | 122 | 0.0 | 0.9 | 0.00 | 0.00 | 0.00 | 67 | 1019.0 |
| 20260502114524 | 33 | 122 | 0.0 | 0.0 | 0.00 | 0.00 | 0.00 | 75 | 1018.9 |
| 20260502113057 | 33 | 122 | 0.0 | 0.0 | 0.00 | 0.00 | 0.00 | 71 | 1018.9 |
| 20260502111553 | 33 | 122 | 0.0 | 1.7 | 0.00 | 0.00 | 0.00 | 71 | 1018.8 |
| 20260502110030 | 34 | 122 | 0.0 | 1.7 | 0.00 | 0.00 | 0.00 | 68 | 1018.9 |
| 20260502104522 | 34 | 123 | 0.9 | 1.7 | 0.00 | 0.00 | 0.00 | 65 | 1018.9 |
| 20260502103016 | 36 | 123 | 0.0 | 0.9 | 0.00 | 0.00 | 0.00 | 65 | 1019.0 |
| 20260502101515 | 36 | 123 | 0.0 | 1.7 | 0.00 | 0.00 | 0.00 | 62 | 1019.1 |
| 20260502091508 | 37 | 143 | 0.9 | 2.6 | 0.00 | 0.00 | 0.00 | 60 | 1019.3 |
| 20260502071507 | 35 | 112 | 0.9 | 1.7 | 0.00 | 0.00 | 0.00 | 69 | 1019.6 |
| 20260502070036 | 34 | 104 | 0.0 | 1.7 | 0.00 | 0.00 | 0.00 | 73 | 1019.7 |
| 20260502064535 | 35 | 101 | 0.9 | 2.6 | 0.00 | 0.00 | 0.00 | 69 | 1019.7 |
| 20260502063100 | 37 | 110 | 0.0 | 2.6 | 0.00 | 0.00 | 0.00 | 67 | 1019.8 |
| 20260502063001 | 37 | 110 | 0.0 | 2.6 | 0.00 | 0.00 | 0.00 | 67 | 1019.8 |
| 20260502061556 | 38 | 94 | 0.0 | 1.7 | 0.00 | 0.00 | 0.00 | 63 | 1019.8 |
| 20260502060029 | 36 | 103 | 0.9 | 2.6 | 0.00 | 0.00 | 0.00 | 64 | 1019.8 |
| 20260502054528 | 36 | 69 | 0.0 | 1.7 | 0.00 | 0.00 | 0.00 | 65 | 1019.7 |
| 20260502053002 | 36 | 39 | 0.0 | 1.7 | 0.00 | 0.00 | 0.00 | 65 | 1019.8 |
| 20260502051555 | 37 | 39 | 0.0 | 0.0 | 0.00 | 0.00 | 0.00 | 65 | 1019.8 |
| 20260502050139 | 37 | 39 | 0.0 | 0.0 | 0.00 | 0.00 | 0.00 | 64 | 1019.7 |
| 20260502044521 | 38 | 39 | 0.0 | 0.0 | 0.00 | 0.00 | 0.00 | 59 | 1019.6 |
| 20260502043110 | 38 | 39 | 0.0 | 0.0 | 0.00 | 0.00 | 0.00 | 59 | 1019.6 |
| 20260502041559 | 39 | 39 | 0.0 | 0.9 | 0.00 | 0.00 | 0.00 | 59 | 1019.6 |
| 20260502040032 | 39 | 39 | 0.0 | 0.9 | 0.00 | 0.00 | 0.00 | 58 | 1019.6 |
| 20260502034531 | 40 | 39 | 0.9 | 1.7 | 0.00 | 0.00 | 0.00 | 56 | 1019.6 |
| 20260502033020 | 41 | 39 | 0.9 | 1.7 | 0.00 | 0.00 | 0.00 | 54 | 1019.6 |